Tracking 20241 objects as of 26-Jan-2020
HD Live streaming from Space Station
objects crossing your sky now

CZ-4C DEB

Track CZ-4C DEB now!
10-day predictions


NORAD ID: 43629
Int'l Code: 2013-065G
Perigee: 966.4 km
Apogee: 1,146.5 km
Inclination: 100.9 °
Period: 106.2 minutes
Semi major axis: 7427 km
RCS: Unknown
Launch date: November 20, 2013
Source: People's Republic of China (PRC)
Launch site: Taiyaun Space Center, China (TSC)

Note: This is SATELLITE DEBRIS
aabbcc
Your satellite tracking list
Your tracking list is empty




NASA's NSSDC Master Catalog

Two Line Element Set (TLE):
1 43629U 13053F   20025.56487053 +.00002817 +00000-0 +38939-2 0  9995
2 43629 100.9264 245.8216 0121260 047.7378 313.3963 13.56253259070909
Source of the keplerian elements: AFSPC